Station NTBC1 - 9411340 - Santa Barbara, CA Image indicating link to RSS feed of recent meteorological observations for station NTBC1


Conditions at NTBC1 as of
(5:36 pm PDT on 07/17/2024)
0036 GMT on 07/18/2024:
     

Click on the graph icon in the table below to see a time series plot of the last five days of that observation.

5-day plot - Wind Direction Wind Direction (WDIR): SW ( 230 deg true )
5-day plot - Wind Speed Wind Speed (WSPD): 7.0 kts
5-day plot - Wind Gust Wind Gust (GST): 12.0 kts
5-day plot - Atmospheric Pressure Atmospheric Pressure (PRES):29.91 in
5-day plot - Air Temperature Air Temperature (ATMP): 69.4 °F
5-day plot - Wind Speed at 10 Meters Wind Speed at 10 meters (WSPD10M): 5.8 kts
5-day plot - Wind Speed at 20 Meters Wind Speed at 20 meters (WSPD20M): 7.8 kts
5-day plot -  Wind Speed, Wind Gust and Atmospheric Pressure Combined plot of Wind Speed, Gust, and Air Pressure
NOS Water Level Observation Network Water Level
Previous observations
TIME
(PDT)
5-day plot - Wind Direction
WDIR
 
5-day plot - Wind Speed
WSPD
kts
5-day plot - Wind Gust
GST
kts
5-day plot - Wave Height
WVHT
ft
5-day plot - Dominant Wave Period
DPD
sec
5-day plot - Average Wave Period
APD
sec
5-day plot - Mean Wave Direction
MWD
 
5-day plot - Atmospheric Pressure
PRES
in
5-day plot - Pressure Tendency
PTDY
in
5-day plot - Air Temperature
ATMP
°F
5-day plot - Water Temperature
WTMP
°F
5-day plot - Dew Point
DEWP
°F
5-day plot - Salinity
SAL
psu
5-day plot - Visibility
VIS
nmi
5-day plot - Tide (above MLLW)
TIDE
ft
2024-07-17 05:30 pm SW 8.9 12.0----29.91- 68.2-----
2024-07-17 05:24 pm SW 11.1 13.0----29.91- 65.7-----
2024-07-17 05:18 pm SW 12.0 13.0----29.91- 65.7-----
2024-07-17 05:12 pm SW 9.9 12.0----29.91- 66.0-----
2024-07-17 05:06 pm SW 11.1 13.0----29.91- 65.7-----
2024-07-17 05:00 pm SW 11.1 12.0----29.92-0.07 66.4-----
2024-07-17 04:54 pm SW 11.1 12.0----29.92- 66.6-----
2024-07-17 04:48 pm SW 9.9 12.0----29.92- 66.7-----
2024-07-17 04:42 pm SW 12.0 13.0----29.92- 65.8-----
2024-07-17 04:36 pm SW 11.1 12.0----29.93- 66.9-----
2024-07-17 04:30 pm SW 8.0 11.1----29.93- 70.0-----
2024-07-17 04:24 pm SW 8.9 9.9----29.93- 68.4-----
2024-07-17 04:18 pm SW 8.0 9.9----29.93- 69.1-----
2024-07-17 04:12 pm SW 8.0 12.0----29.93- 68.2-----
2024-07-17 04:06 pm SW 11.1 13.0----29.94- 66.4-----
2024-07-17 04:00 pm SW 8.9 12.0----29.94-0.06 69.6-----
2024-07-17 03:54 pm SW 9.9 12.0----29.94- 69.4-----
2024-07-17 03:48 pm SW 9.9 12.0----29.94- 68.7-----
2024-07-17 03:42 pm SW 12.0 14.0----29.95- 66.4-----
2024-07-17 03:36 pm SW 11.1 12.0----29.95-------
2024-07-17 03:30 pm SW 11.1 14.0----29.95-------
2024-07-17 03:24 pm SW 13.0 14.0----29.96-------
2024-07-17 03:18 pm SW 13.0 15.0----29.96-------
2024-07-17 03:12 pm SW 13.0 14.0----29.96-------
2024-07-17 03:06 pm SW 13.0 15.0----29.96-------
2024-07-17 03:00 pm SW 12.0 14.0----29.96-0.05------
2024-07-17 02:54 pm SW 12.0 14.0----29.96-------
2024-07-17 02:48 pm SW 12.0 13.0----29.96-------
2024-07-17 02:42 pm SW 12.0 13.0----29.97-------
2024-07-17 02:36 pm SW 12.0 13.0----29.98- 64.8-----
2024-07-17 02:30 pm SW 12.0 15.0----29.98- 64.4-----
2024-07-17 02:24 pm SW 13.0 15.0----29.98- 64.6-----
2024-07-17 02:18 pm SW 13.0 14.0----29.98- 64.9-----
2024-07-17 02:12 pm SW 12.0 14.0----29.98- 64.8-----
2024-07-17 02:06 pm SW 13.0 14.0----29.98- 64.6-----
2024-07-17 02:00 pm SW 13.0 15.0----29.98-0.02 64.6-----
2024-07-17 01:54 pm SW 13.0 15.0----29.99- 64.9-----
2024-07-17 01:48 pm SW 12.0 13.0----29.99- 64.6-----
2024-07-17 01:42 pm SW 12.0 13.0----29.99- 64.9-----
2024-07-17 01:36 pm SW 11.1 12.0----30.00- 64.6-----
2024-07-17 01:30 pm SW 11.1 12.0----30.00- 64.6-----
2024-07-17 01:24 pm SW 9.9 12.0----30.00- 64.8-----
2024-07-17 01:18 pm SW 12.0 12.0----30.00- 64.2-----
2024-07-17 01:12 pm SW 12.0 13.0----30.00- 63.9-----
2024-07-17 01:06 pm SW 12.0 13.0----30.00- 63.7-----
2024-07-17 01:00 pm SW 12.0 13.0----30.00+0.00 64.0-----
2024-07-17 12:54 pm SW 11.1 12.0----30.01- 63.9-----
2024-07-17 12:48 pm SW 9.9 11.1----30.01- 64.0-----
2024-07-17 12:42 pm SW 9.9 12.0----30.01- 63.9-----
2024-07-17 12:36 pm SW 11.1 12.0----30.01- 63.7-----
2024-07-17 12:30 pm SW 12.0 12.0----30.00- 63.7-----
2024-07-17 12:24 pm SW 11.1 12.0----30.01- 63.9-----
2024-07-17 12:18 pm SW 8.9 11.1----30.01- 64.0-----
2024-07-17 12:12 pm SW 8.9 11.1----30.01- 64.0-----
2024-07-17 12:06 pm SW 9.9 11.1----30.01- 63.7-----
2024-07-17 12:00 pm SW 9.9 11.1----30.01+0.01 63.3-----
2024-07-17 11:54 am SW 11.1 11.1----30.01- 63.1-----
2024-07-17 11:48 amSSW 8.9 9.9----30.01- 63.9-----
2024-07-17 11:42 am SW 8.0 8.9----30.01- 63.9-----
2024-07-17 11:36 am SW 8.0 9.9----30.01- 64.4-----
2024-07-17 11:30 am SW 8.9 11.1----30.01- 64.4-----
2024-07-17 11:24 am SW 8.9 9.9----30.01- 64.0-----
2024-07-17 11:18 amSSW 8.0 8.9----30.01- 63.9-----
2024-07-17 11:12 am SW 8.0 8.0----30.01- 64.0-----
2024-07-17 11:06 amSSW 7.0 8.0----30.01- 63.9-----
2024-07-17 11:00 amSSW 6.0 7.0----30.00+0.01 64.2-----
2024-07-17 10:36 amSSW 6.0 7.0----30.01- 64.8-----
2024-07-17 10:30 amSSW 7.0 7.0----30.01- 64.4-----
2024-07-17 10:24 amSSW 7.0 8.0----30.01- 64.2-----
2024-07-17 10:18 amSSW 7.0 7.0----30.01- 64.0-----
2024-07-17 10:12 amSSW 7.0 7.0----30.00- 63.7-----
2024-07-17 10:06 amSSW 6.0 7.0----30.00- 63.7-----
2024-07-17 10:00 amSSW 5.1 6.0----30.00+0.03 64.0-----
2024-07-17 09:54 amSSW 5.1 6.0----30.00- 64.0-----
2024-07-17 09:48 amSSW 5.1 6.0----30.00- 63.7-----
2024-07-17 09:42 amSSW 5.1 6.0----30.00- 64.0-----
2024-07-17 09:36 amSSW 5.1 6.0----30.00- 63.3-----
2024-07-17 09:30 amSSW 5.1 5.1----30.00- 63.3-----
2024-07-17 09:24 amSSW 5.1 5.1----30.00- 63.3-----
2024-07-17 09:18 amSSW 4.1 4.1----30.00- 63.0-----
2024-07-17 09:12 amSSW 2.9 4.1----30.00- 63.0-----
2024-07-17 09:06 amSSW 2.9 4.1----30.00- 63.1-----
2024-07-17 09:00 am S 1.9 2.9----30.00+0.04 63.0-----
2024-07-17 08:54 amSSW 2.9 2.9----30.00- 63.0-----
2024-07-17 08:48 amSSW 2.9 4.1----30.00- 63.0-----
2024-07-17 08:42 amSSW 2.9 4.1----30.00- 62.8-----
2024-07-17 08:36 amSSW 4.1 4.1----29.99- 62.8-----
2024-07-17 08:30 amSSW 2.9 2.9----29.99- 62.8-----
2024-07-17 08:24 amSSW 2.9 4.1----30.00- 62.6-----
2024-07-17 08:18 amSSW 4.1 4.1----29.99- 62.6-----
2024-07-17 08:12 amSSW 2.9 2.9----29.99- 62.4-----
2024-07-17 08:06 amSSW 2.9 2.9----29.99- 62.6-----
2024-07-17 08:00 amSSW 2.9 2.9----29.99+0.04 63.0-----
2024-07-17 07:54 amSSE 1.9 1.9----29.99- 64.2-----
2024-07-17 07:48 am- 0.0 1.9----29.99- 64.4-----
2024-07-17 07:42 amSSE 1.9 1.9----29.99- 64.2-----
2024-07-17 07:36 am- 0.0 1.9----29.99- 64.9-----
2024-07-17 07:30 am- 0.0 1.0----29.98- 64.9-----
2024-07-17 07:24 am- 0.0 1.9----29.98- 64.4-----
2024-07-17 07:18 am- 0.0 1.9----29.98- 64.8-----
2024-07-17 07:12 am- 0.0 1.0----29.98- 64.9-----
2024-07-17 07:06 am- 0.0 1.0----29.98- 64.9-----
2024-07-17 07:00 amENE 1.0 1.9----29.97+0.05 63.9-----
2024-07-17 06:54 am NE 1.9 2.9----29.97- 63.3-----
2024-07-17 06:48 am E 1.9 1.9----29.97- 63.3-----
2024-07-17 06:42 am E 1.9 1.9----29.98- 63.0-----
2024-07-17 06:36 am E 1.9 1.9----29.97- 62.8-----
2024-07-17 06:30 am E 1.0 1.9----29.97- 62.4-----
2024-07-17 06:24 am- 0.0 1.0----29.97- 62.2-----
2024-07-17 06:18 amESE 1.9 1.9----29.96- 62.2-----
2024-07-17 06:12 am SE 1.0 2.9----29.96- 62.1-----
2024-07-17 06:06 am SE 1.9 4.1----29.96- 62.1-----
2024-07-17 06:00 am SE 2.9 5.1----29.96+0.04 62.2-----
2024-07-17 05:54 amESE 4.1 5.1----29.96- 62.2-----
2024-07-17 05:48 amESE 2.9 4.1----29.96- 62.4-----
2024-07-17 05:42 am E 4.1 5.1----29.95- 62.4-----
2024-07-17 05:36 am E 2.9 5.1----29.95- 62.6-----
2024-07-17 05:30 am E 5.1 6.0----29.95- 62.6-----
2024-07-17 05:24 am E 5.1 6.0----29.95- 62.4-----
2024-07-17 05:18 am E 5.1 7.0----29.95- 62.6-----
2024-07-17 05:12 am E 6.0 8.0----29.95- 62.6-----
2024-07-17 05:06 am E 8.0 8.0----29.95- 62.6-----
2024-07-17 05:00 amENE 7.0 8.0----29.95+0.03 62.6-----
2024-07-17 04:54 am E 7.0 8.9----29.95- 62.4-----
2024-07-17 04:48 am E 7.0 9.9----29.95- 62.4-----
2024-07-17 04:42 am E 8.0 9.9----29.95- 62.6-----
2024-07-17 04:36 am E 8.0 11.1----29.94- 62.6-----
2024-07-17 04:30 am E 8.9 12.0----29.94- 62.6-----
2024-07-17 04:24 am E 8.9 13.0----29.94- 62.6-----
2024-07-17 04:18 am E 9.9 14.0----29.93- 62.6-----
2024-07-17 04:12 am E 12.0 15.0----29.93- 62.6-----
2024-07-17 04:06 am E 13.0 15.0----29.93- 62.8-----
2024-07-17 04:00 amENE 11.1 13.0----29.93+0.00 62.6-----
2024-07-17 03:54 amENE 12.0 13.0----29.93- 62.4-----
2024-07-17 03:48 amENE 9.9 13.0----29.93- 62.4-----
2024-07-17 03:42 amENE 9.9 12.0----29.92- 62.6-----
2024-07-17 03:36 amENE 8.0 11.1----29.92- 62.6-----
2024-07-17 03:30 amENE 8.9 11.1----29.92- 62.6-----
2024-07-17 03:24 amENE 8.0 9.9----29.92- 62.4-----
2024-07-17 03:18 amENE 7.0 8.9----29.92- 62.6-----
2024-07-17 03:12 am NE 6.0 9.9----29.92- 62.6-----
2024-07-17 03:06 am NE 7.0 8.9----29.92- 62.6-----
2024-07-17 03:00 am NE 8.0 11.1----29.92-0.01 62.8-----
2024-07-17 02:54 am NE 7.0 8.9----29.92- 62.8-----
2024-07-17 02:48 am NE 6.0 8.0----29.92- 62.6-----
2024-07-17 02:42 am NE 6.0 7.0----29.92- 62.6-----
2024-07-17 02:36 am NE 6.0 8.0----29.92- 62.6-----
2024-07-17 02:30 am NE 6.0 8.0----29.92- 62.6-----
2024-07-17 02:24 amNNE 7.0 8.9----29.92- 62.6-----
2024-07-17 02:18 amNNE 7.0 8.0----29.92- 62.6-----
2024-07-17 02:12 am NE 7.0 8.0----29.93- 62.6-----
2024-07-17 02:06 am NE 7.0 8.0----29.92- 62.6-----
2024-07-17 02:00 am NE 6.0 8.0----29.92+0.00 62.6-----
2024-07-17 01:54 am NE 6.0 8.0----29.92- 62.6-----
2024-07-17 01:48 am NE 6.0 7.0----29.92- 62.4-----
2024-07-17 01:42 am NE 6.0 8.0----29.92- 62.4-----
2024-07-17 01:36 am NE 6.0 8.0----29.92- 62.4-----
2024-07-17 01:30 am NE 6.0 7.0----29.92- 62.4-----
2024-07-17 01:24 am NE 5.1 7.0----29.92- 62.6-----
2024-07-17 01:18 am NE 5.1 8.0----29.92- 62.6-----
2024-07-17 01:12 am NE 6.0 8.0----29.92- 62.6-----
2024-07-17 01:06 am NE 5.1 7.0----29.93- 62.8-----
2024-07-17 01:00 am NE 5.1 7.0----29.93+0.00 62.8-----
2024-07-17 12:54 amENE 5.1 8.0----29.93- 62.8-----
2024-07-17 12:48 am NE 6.0 8.0----29.93- 62.8-----
2024-07-17 12:42 amENE 6.0 8.9----29.93- 62.8-----
2024-07-17 12:36 amENE 5.1 8.0----29.93- 62.8-----
2024-07-17 12:30 am NE 6.0 8.0----29.93- 63.0-----
2024-07-17 12:24 am NE 6.0 8.9----29.93- 63.0-----
2024-07-17 12:18 am NE 6.0 8.9----29.93- 63.0-----
2024-07-17 12:12 am NE 7.0 9.9----29.93- 63.0-----
2024-07-17 12:06 am NE 8.0 9.9----29.93- 63.0-----
2024-07-17 12:00 am NE 8.0 9.9----29.93+0.01 63.0-----
2024-07-16 11:54 pm NE 7.0 9.9----29.93- 63.0-----
2024-07-16 11:48 pm NE 7.0 9.9----29.93- 63.1-----
2024-07-16 11:42 pmENE 7.0 9.9----29.93- 63.1-----
2024-07-16 11:36 pmENE 7.0 9.9----29.93- 63.1-----
2024-07-16 11:30 pmENE 7.0 9.9----29.93- 63.1-----
2024-07-16 11:24 pm NE 7.0 8.9----29.93- 63.1-----
2024-07-16 11:18 pmENE 5.1 8.0----29.93- 63.1-----
2024-07-16 11:12 pmENE 5.1 8.0----29.93- 63.1-----
2024-07-16 11:06 pmENE 6.0 8.0----29.93- 63.1-----
2024-07-16 11:00 pm NE 7.0 8.9----29.92+0.00 63.1-----
2024-07-16 10:54 pm NE 6.0 8.0----29.92- 63.3-----
2024-07-16 10:48 pm NE 6.0 9.9----29.93- 63.3-----
2024-07-16 10:42 pmENE 6.0 8.9----29.93- 63.3-----
2024-07-16 10:36 pmENE 7.0 8.9----29.93- 63.5-----
2024-07-16 10:30 pmENE 7.0 11.1----29.93- 63.5-----
2024-07-16 10:24 pmENE 5.1 9.9----29.93- 63.5-----
2024-07-16 10:18 pmENE 8.9 9.9----29.93- 63.5-----
2024-07-16 10:12 pmENE 6.0 8.9----29.93- 63.7-----
2024-07-16 10:06 pmENE 7.0 9.9----29.93- 63.7-----
2024-07-16 10:00 pmENE 6.0 9.9----29.93+0.00 63.7-----
2024-07-16 09:54 pmENE 8.9 11.1----29.93- 63.7-----
2024-07-16 09:48 pmENE 8.0 9.9----29.93- 63.7-----
2024-07-16 09:42 pmENE 6.0 8.9----29.93- 63.7-----
2024-07-16 09:36 pmENE 5.1 8.0----29.93- 63.7-----
2024-07-16 09:30 pmENE 5.1 7.0----29.93- 63.5-----
2024-07-16 09:24 pm E 5.1 6.0----29.92- 63.5-----
2024-07-16 09:18 pm E 6.0 7.0----29.92- 63.7-----
2024-07-16 09:12 pmENE 6.0 8.0----29.92- 63.7-----
2024-07-16 09:06 pmENE 4.1 6.0----29.92- 63.7-----
2024-07-16 09:00 pmENE 5.1 6.0----29.92-0.01 63.7-----
2024-07-16 08:54 pmENE 6.0 6.0----29.92- 63.7-----
2024-07-16 08:48 pm E 4.1 5.1----29.92- 63.7-----
2024-07-16 08:42 pmENE 5.1 6.0----29.92- 63.7-----
2024-07-16 08:36 pm E 4.1 5.1----29.92- 63.9-----
2024-07-16 08:30 pmENE 4.1 5.1----29.92- 63.9-----
2024-07-16 08:24 pmENE 2.9 4.1----29.92- 63.9-----
2024-07-16 08:18 pm E 2.9 4.1----29.92- 63.9-----
2024-07-16 08:12 pm E 2.9 4.1----29.92- 64.0-----
2024-07-16 08:06 pm E 2.9 4.1----29.92- 64.0-----
2024-07-16 08:00 pmESE 2.9 4.1----29.92-0.01 64.2-----
2024-07-16 07:54 pmESE 2.9 4.1----29.92- 64.2-----
2024-07-16 07:48 pmESE 1.9 2.9----29.92- 64.2-----
2024-07-16 07:42 pm SE 2.9 2.9----29.92- 64.2-----
2024-07-16 07:36 pm SE 1.9 2.9----29.92- 64.6-----
2024-07-16 07:30 pmESE 1.9 2.9----29.92- 64.6-----
2024-07-16 07:24 pmESE 1.9 4.1----29.92- 64.8-----
2024-07-16 07:18 pmESE 1.9 2.9----29.93- 64.6-----
2024-07-16 07:12 pmESE 2.9 4.1----29.93- 64.6-----
2024-07-16 07:06 pmESE 4.1 4.1----29.93- 64.4-----
2024-07-16 07:00 pm SE 2.9 4.1----29.93-0.03 64.6-----
2024-07-16 06:54 pmESE 2.9 4.1----29.93- 65.1-----
2024-07-16 06:48 pmESE 2.9 4.1----29.93- 65.1-----
2024-07-16 06:42 pmESE 2.9 4.1----29.93- 64.8-----
2024-07-16 06:36 pm SE 2.9 4.1----29.93- 64.8-----
2024-07-16 06:30 pmESE 4.1 5.1----29.93- 64.6-----
2024-07-16 06:24 pm SE 4.1 7.0----29.93- 64.6-----
2024-07-16 06:18 pmSSW 7.0 8.0----29.93- 64.4-----
2024-07-16 06:12 pmSSW 8.0 8.0----29.93- 64.4-----
2024-07-16 06:06 pmSSW 8.0 8.9----29.93- 64.4-----
2024-07-16 06:00 pmSSW 8.0 11.1----29.93-0.05 64.9-----
2024-07-16 05:54 pm SW 9.9 11.1----29.93- 64.9-----